Time,TemperatureF,DewpointF,PressureIn,WindDirection,WindDirectionDegrees,WindSpeedMPH,WindSpeedGustMPH,Humidity,HourlyPrecipIn,Conditions,Clouds,dailyrainin,SoftwareType,DateUTC
2013-07-06 00:01:00,70.3,69.7,30.13,SE,142,0.0,0.0,98,0.00,,,0.00,Wunderground v.1.15,2013-07-06 04:01:00,
2013-07-06 00:03:00,70.2,69.6,30.13,SE,143,0.0,0.0,98,0.00,,,0.00,Wunderground v.1.15,2013-07-06 04:03:00,
2013-07-06 00:04:00,70.2,69.6,30.13,SE,142,0.0,0.0,98,0.00,,,0.00,Wunderground v.1.15,2013-07-06 04:04:00,
2013-07-06 00:05:00,70.2,69.6,30.13,SE,142,0.0,0.0,98,0.00,,,0.00,Wunderground v.1.15,2013-07-06 04:05:00,
2013-07-06 00:08:00,70.1,69.5,30.13,SE,142,0.0,0.0,98,0.00,,,0.00,Wunderground v.1.15,2013-07-06 04:08:00,
2013-07-06 00:13:00,70.1,69.5,30.13,SE,142,0.0,0.0,98,0.00,,,0.00,Wunderground v.1.15,2013-07-06 04:13:00,
2013-07-06 00:19:00,70.3,70.0,30.13,SE,141,0.0,0.0,99,0.00,,,0.00,Wunderground v.1.15,2013-07-06 04:19:00,
2013-07-06 00:25:00,70.4,70.1,30.13,SE,141,0.0,0.0,99,0.00,,,0.00,Wunderground v.1.15,2013-07-06 04:25:00,
2013-07-06 00:31:00,70.2,69.6,30.13,SE,141,0.0,0.0,98,0.00,,,0.00,Wunderground v.1.15,2013-07-06 04:31:00,
2013-07-06 00:37:00,69.9,69.3,30.13,ESE,120,0.0,0.0,98,0.00,,,0.00,Wunderground v.1.15,2013-07-06 04:37:00,
2013-07-06 00:42:00,69.9,69.3,30.13,ESE,107,0.0,0.0,98,0.00,,,0.00,Wunderground v.1.15,2013-07-06 04:42:00,
2013-07-06 00:48:00,69.9,69.6,30.13,ESE,107,0.0,0.0,99,0.00,,,0.00,Wunderground v.1.15,2013-07-06 04:48:00,
2013-07-06 00:54:00,69.9,69.3,30.13,ESE,116,0.0,0.0,98,0.00,,,0.00,Wunderground v.1.15,2013-07-06 04:54:00,
2013-07-06 00:59:00,69.8,69.5,30.13,ESE,115,0.0,0.0,99,0.00,,,0.00,Wunderground v.1.15,2013-07-06 04:59:00,
2013-07-06 01:05:00,69.9,69.6,30.13,ESE,115,0.0,0.0,99,0.00,,,0.00,Wunderground v.1.15,2013-07-06 05:05:00,
2013-07-06 01:11:00,69.8,69.5,30.12,ESE,115,0.0,0.0,99,0.00,,,0.00,Wunderground v.1.15,2013-07-06 05:11:00,
2013-07-06 01:17:00,69.7,69.4,30.12,ESE,116,0.0,0.0,99,0.00,,,0.00,Wunderground v.1.15,2013-07-06 05:17:00,
2013-07-06 01:23:00,69.6,69.3,30.12,ESE,115,0.0,0.0,99,0.00,,,0.00,Wunderground v.1.15,2013-07-06 05:23:00,
2013-07-06 01:29:00,69.6,69.3,30.12,ESE,115,0.0,0.0,99,0.00,,,0.00,Wunderground v.1.15,2013-07-06 05:29:00,
2013-07-06 01:35:00,69.6,69.3,30.12,ESE,115,0.0,0.0,99,0.00,,,0.00,Wunderground v.1.15,2013-07-06 05:35:00,
2013-07-06 01:40:00,69.6,69.3,30.12,ESE,115,0.0,0.0,99,0.00,,,0.00,Wunderground v.1.15,2013-07-06 05:40:00,
2013-07-06 01:46:00,69.5,69.2,30.12,ESE,116,0.0,0.0,99,0.00,,,0.00,Wunderground v.1.15,2013-07-06 05:46:00,
2013-07-06 01:52:00,69.5,69.2,30.12,ESE,115,0.0,0.0,99,0.00,,,0.00,Wunderground v.1.15,2013-07-06 05:52:00,
2013-07-06 01:58:00,69.5,69.2,30.11,ESE,116,0.0,0.0,99,0.00,,,0.00,Wunderground v.1.15,2013-07-06 05:58:00,
2013-07-06 02:03:00,69.5,69.2,30.11,ESE,116,0.0,0.0,99,0.00,,,0.00,Wunderground v.1.15,2013-07-06 06:03:00,
2013-07-06 02:09:00,69.6,69.3,30.11,ESE,116,0.0,0.0,99,0.00,,,0.00,Wunderground v.1.15,2013-07-06 06:09:00,
2013-07-06 02:15:00,69.4,69.1,30.11,ESE,116,0.0,0.0,99,0.00,,,0.00,Wunderground v.1.15,2013-07-06 06:15:00,
2013-07-06 02:21:00,69.6,69.3,30.11,ESE,115,0.0,0.0,99,0.00,,,0.00,Wunderground v.1.15,2013-07-06 06:21:00,
2013-07-06 02:27:00,69.3,69.0,30.11,SE,131,0.0,0.0,99,0.00,,,0.00,Wunderground v.1.15,2013-07-06 06:27:00,
2013-07-06 02:33:00,69.2,68.9,30.12,SE,139,0.0,1.0,99,0.00,,,0.00,Wunderground v.1.15,2013-07-06 06:33:00,
2013-07-06 02:38:00,69.2,68.9,30.11,SE,138,0.0,1.0,99,0.00,,,0.00,Wunderground v.1.15,2013-07-06 06:38:00,
2013-07-06 02:44:00,69.3,69.0,30.12,SE,139,0.0,0.0,99,0.00,,,0.00,Wunderground v.1.15,2013-07-06 06:44:00,
2013-07-06 02:49:00,69.3,69.0,30.11,SE,139,0.0,0.0,99,0.00,,,0.01,Wunderground v.1.15,2013-07-06 06:49:00,
2013-07-06 02:56:00,69.3,69.0,30.11,SE,134,0.0,0.0,99,0.00,,,0.01,Wunderground v.1.15,2013-07-06 06:56:00,
2013-07-06 03:01:00,69.3,69.0,30.11,SE,128,0.0,0.0,99,0.00,,,0.01,Wunderground v.1.15,2013-07-06 07:01:00,
2013-07-06 03:07:00,69.2,68.9,30.11,SE,129,0.0,0.0,99,0.00,,,0.01,Wunderground v.1.15,2013-07-06 07:07:00,
2013-07-06 03:12:00,69.2,68.9,30.11,SE,129,0.0,0.0,99,0.00,,,0.01,Wunderground v.1.15,2013-07-06 07:12:00,
2013-07-06 03:18:00,69.1,68.8,30.11,SE,129,0.0,0.0,99,0.00,,,0.01,Wunderground v.1.15,2013-07-06 07:18:00,
2013-07-06 03:24:00,69.1,68.8,30.11,SE,128,0.0,0.0,99,0.00,,,0.01,Wunderground v.1.15,2013-07-06 07:24:00,
2013-07-06 03:29:00,69.1,68.8,30.11,SE,129,0.0,0.0,99,0.00,,,0.01,Wunderground v.1.15,2013-07-06 07:29:00,
2013-07-06 03:35:00,69.1,68.8,30.11,SE,129,0.0,0.0,99,0.00,,,0.01,Wunderground v.1.15,2013-07-06 07:35:00,
2013-07-06 03:42:00,69.0,68.7,30.11,ESE,110,0.0,0.0,99,0.00,,,0.01,Wunderground v.1.15,2013-07-06 07:42:00,
2013-07-06 03:48:00,69.0,68.7,30.11,ESE,110,0.0,0.0,99,0.00,,,0.01,Wunderground v.1.15,2013-07-06 07:48:00,
2013-07-06 03:53:00,69.0,68.7,30.11,ESE,110,0.0,0.0,99,0.00,,,0.01,Wunderground v.1.15,2013-07-06 07:53:00,
2013-07-06 03:59:00,69.0,68.7,30.11,ESE,110,0.0,0.0,99,0.00,,,0.01,Wunderground v.1.15,2013-07-06 07:59:00,
2013-07-06 04:05:00,69.0,68.7,30.11,ESE,111,0.0,0.0,99,0.00,,,0.01,Wunderground v.1.15,2013-07-06 08:05:00,
2013-07-06 04:12:00,69.0,68.7,30.11,ENE,77,0.0,0.0,99,0.00,,,0.01,Wunderground v.1.15,2013-07-06 08:12:00,
2013-07-06 04:17:00,69.0,68.7,30.10,ESE,117,0.0,1.0,99,0.00,,,0.01,Wunderground v.1.15,2013-07-06 08:17:00,
2013-07-06 04:23:00,68.9,68.6,30.10,East,84,0.0,0.0,99,0.00,,,0.01,Wunderground v.1.15,2013-07-06 08:23:00,
2013-07-06 04:29:00,68.8,68.5,30.10,East,89,0.0,0.0,99,0.00,,,0.01,Wunderground v.1.15,2013-07-06 08:29:00,
2013-07-06 04:34:00,68.8,68.5,30.11,East,89,0.0,0.0,99,0.00,,,0.01,Wunderground v.1.15,2013-07-06 08:34:00,
2013-07-06 04:40:00,68.8,68.5,30.10,East,89,0.0,0.0,99,0.00,,,0.01,Wunderground v.1.15,2013-07-06 08:40:00,
2013-07-06 04:46:00,68.8,68.5,30.10,East,89,0.0,0.0,99,0.00,,,0.01,Wunderground v.1.15,2013-07-06 08:46:00,
2013-07-06 04:51:00,68.8,68.5,30.10,East,89,0.0,0.0,99,0.00,,,0.01,Wunderground v.1.15,2013-07-06 08:51:00,
2013-07-06 04:57:00,68.7,68.4,30.10,East,82,0.0,0.0,99,0.00,,,0.01,Wunderground v.1.15,2013-07-06 08:57:00,
2013-07-06 05:03:00,68.7,68.4,30.10,ESE,103,0.0,0.0,99,0.00,,,0.01,Wunderground v.1.15,2013-07-06 09:03:00,
2013-07-06 05:09:00,68.8,68.5,30.09,East,91,0.0,0.0,99,0.00,,,0.01,Wunderground v.1.15,2013-07-06 09:09:00,
2013-07-06 05:14:00,68.7,68.4,30.09,East,97,0.0,0.0,99,0.00,,,0.01,Wunderground v.1.15,2013-07-06 09:14:00,
2013-07-06 05:20:00,68.7,68.4,30.09,East,85,0.0,1.0,99,0.00,,,0.01,Wunderground v.1.15,2013-07-06 09:20:00,
2013-07-06 05:26:00,68.7,68.4,30.09,ENE,70,0.0,2.0,99,0.00,,,0.01,Wunderground v.1.15,2013-07-06 09:26:00,
2013-07-06 05:32:00,68.7,68.4,30.09,East,99,0.0,1.0,99,0.00,,,0.01,Wunderground v.1.15,2013-07-06 09:32:00,
2013-07-06 05:37:00,68.7,68.4,30.09,ESE,107,0.0,1.0,99,0.00,,,0.01,Wunderground v.1.15,2013-07-06 09:37:00,
2013-07-06 05:42:00,68.6,68.3,30.09,ENE,73,0.0,1.0,99,0.00,,,0.01,Wunderground v.1.15,2013-07-06 09:42:00,
2013-07-06 05:48:00,68.7,68.4,30.09,ENE,72,0.0,1.0,99,0.00,,,0.01,Wunderground v.1.15,2013-07-06 09:48:00,
2013-07-06 05:54:00,68.7,68.4,30.09,East,85,1.0,2.0,99,0.00,,,0.01,Wunderground v.1.15,2013-07-06 09:54:00,
2013-07-06 05:59:00,68.7,68.4,30.09,ENE,75,1.0,2.0,99,0.00,,,0.01,Wunderground v.1.15,2013-07-06 09:59:00,
2013-07-06 06:05:00,68.7,68.4,30.09,ESE,102,1.0,2.0,99,0.00,,,0.01,Wunderground v.1.15,2013-07-06 10:05:00,
2013-07-06 06:10:00,68.7,68.4,30.09,East,96,1.0,1.0,99,0.00,,,0.01,Wunderground v.1.15,2013-07-06 10:10:00,
2013-07-06 06:16:00,68.7,68.4,30.09,East,82,1.0,3.0,99,0.00,,,0.01,Wunderground v.1.15,2013-07-06 10:16:00,
2013-07-06 06:21:00,68.7,68.4,30.09,ESE,121,1.0,1.0,99,0.00,,,0.01,Wunderground v.1.15,2013-07-06 10:21:00,
2013-07-06 06:27:00,68.6,68.3,30.09,ENE,78,0.0,1.0,99,0.00,,,0.01,Wunderground v.1.15,2013-07-06 10:27:00,
2013-07-06 06:33:00,68.6,68.3,30.09,East,100,0.0,0.0,99,0.00,,,0.01,Wunderground v.1.15,2013-07-06 10:33:00,
2013-07-06 06:38:00,68.6,68.3,30.09,ENE,72,1.0,1.0,99,0.00,,,0.01,Wunderground v.1.15,2013-07-06 10:38:00,
2013-07-06 06:44:00,68.6,68.3,30.09,East,80,1.0,2.0,99,0.00,,,0.01,Wunderground v.1.15,2013-07-06 10:44:00,
2013-07-06 06:50:00,68.6,68.3,30.09,East,101,1.0,1.0,99,0.00,,,0.01,Wunderground v.1.15,2013-07-06 10:50:00,
2013-07-06 06:55:00,68.6,68.3,30.10,ENE,75,1.0,2.0,99,0.00,,,0.01,Wunderground v.1.15,2013-07-06 10:55:00,
2013-07-06 07:00:00,68.7,68.4,30.09,East,86,1.0,2.0,99,0.00,,,0.01,Wunderground v.1.15,2013-07-06 11:00:00,
2013-07-06 07:06:00,68.8,68.5,30.09,ENE,77,2.0,3.0,99,0.00,,,0.01,Wunderground v.1.15,2013-07-06 11:06:00,
2013-07-06 07:12:00,68.8,68.5,30.09,ESE,108,2.0,2.0,99,0.00,,,0.01,Wunderground v.1.15,2013-07-06 11:12:00,
2013-07-06 07:18:00,68.9,68.6,30.09,East,89,2.0,4.0,99,0.00,,,0.01,Wunderground v.1.15,2013-07-06 11:18:00,
2013-07-06 07:24:00,68.9,68.6,30.09,East,95,2.0,3.0,99,0.00,,,0.01,Wunderground v.1.15,2013-07-06 11:24:00,
2013-07-06 07:29:00,69.0,68.7,30.09,East,83,2.0,3.0,99,0.00,,,0.01,Wunderground v.1.15,2013-07-06 11:29:00,
2013-07-06 07:35:00,69.1,68.5,30.09,SE,130,1.0,2.0,98,0.00,,,0.01,Wunderground v.1.15,2013-07-06 11:35:00,
2013-07-06 07:41:00,69.2,68.6,30.08,ENE,77,1.0,4.0,98,0.00,,,0.01,Wunderground v.1.15,2013-07-06 11:41:00,
2013-07-06 07:47:00,69.3,68.7,30.08,East,94,2.0,5.0,98,0.00,,,0.02,Wunderground v.1.15,2013-07-06 11:47:00,
2013-07-06 07:52:00,69.4,68.8,30.08,East,100,1.0,1.0,98,0.00,,,0.02,Wunderground v.1.15,2013-07-06 11:52:00,
2013-07-06 07:58:00,69.6,69.0,30.08,ESE,118,1.0,2.0,98,0.00,,,0.02,Wunderground v.1.15,2013-07-06 11:58:00,
2013-07-06 08:03:00,69.7,69.1,30.08,SE,144,0.0,1.0,98,0.00,,,0.02,Wunderground v.1.15,2013-07-06 12:03:00,
2013-07-06 08:09:00,69.8,69.2,30.08,ESE,110,0.0,1.0,98,0.00,,,0.02,Wunderground v.1.15,2013-07-06 12:09:00,
2013-07-06 08:14:00,70.0,69.4,30.09,ESE,110,0.0,1.0,98,0.00,,,0.02,Wunderground v.1.15,2013-07-06 12:14:00,
2013-07-06 08:20:00,70.1,69.5,30.09,SE,125,1.0,2.0,98,0.00,,,0.02,Wunderground v.1.15,2013-07-06 12:20:00,
2013-07-06 08:27:00,70.2,69.3,30.09,SE,145,1.0,3.0,97,0.00,,,0.02,Wunderground v.1.15,2013-07-06 12:27:00,
2013-07-06 08:33:00,70.6,69.7,30.09,SE,131,1.0,1.0,97,0.00,,,0.02,Wunderground v.1.15,2013-07-06 12:33:00,
2013-07-06 08:38:00,71.2,70.3,30.09,SSW,211,1.0,2.0,97,0.00,,,0.02,Wunderground v.1.15,2013-07-06 12:38:00,
2013-07-06 08:44:00,71.8,70.9,30.09,SE,129,1.0,1.0,97,0.00,,,0.02,Wunderground v.1.15,2013-07-06 12:44:00,
2013-07-06 08:50:00,71.9,70.4,30.09,East,84,2.0,2.0,95,0.00,,,0.02,Wunderground v.1.15,2013-07-06 12:50:00,
2013-07-06 08:56:00,71.8,70.0,30.09,East,98,2.0,5.0,94,0.00,,,0.02,Wunderground v.1.15,2013-07-06 12:56:00,
2013-07-06 09:01:00,71.9,70.1,30.09,East,101,2.0,3.0,94,0.00,,,0.02,Wunderground v.1.15,2013-07-06 13:01:00,
2013-07-06 09:07:00,72.0,70.2,30.09,ESE,120,2.0,3.0,94,0.00,,,0.02,Wunderground v.1.15,2013-07-06 13:07:00,
2013-07-06 09:13:00,72.1,70.3,30.09,ESE,117,2.0,3.0,94,0.00,,,0.02,Wunderground v.1.15,2013-07-06 13:13:00,
2013-07-06 09:18:00,72.2,70.4,30.09,ESE,103,2.0,3.0,94,0.00,,,0.02,Wunderground v.1.15,2013-07-06 13:18:00,
2013-07-06 09:24:00,72.3,70.5,30.09,SSE,155,3.0,3.0,94,0.00,,,0.03,Wunderground v.1.15,2013-07-06 13:24:00,
2013-07-06 09:25:00,72.3,70.5,30.09,SSE,150,3.0,3.0,94,0.00,,,0.03,Wunderground v.1.15,2013-07-06 13:25:00,
2013-07-06 09:31:00,72.6,70.8,30.09,SE,124,2.0,2.0,94,0.00,,,0.03,Wunderground v.1.15,2013-07-06 13:31:00,
2013-07-06 09:37:00,72.7,70.9,30.09,SSE,153,2.0,4.0,94,0.00,,,0.03,Wunderground v.1.15,2013-07-06 13:37:00,
2013-07-06 09:42:00,72.8,70.7,30.09,ESE,122,3.0,4.0,93,0.00,,,0.03,Wunderground v.1.15,2013-07-06 13:42:00,
2013-07-06 09:48:00,72.9,70.8,30.09,SSE,163,3.0,4.0,93,0.00,,,0.03,Wunderground v.1.15,2013-07-06 13:48:00,
2013-07-06 09:53:00,73.2,71.1,30.08,ESE,118,3.0,5.0,93,0.00,,,0.03,Wunderground v.1.15,2013-07-06 13:53:00,
2013-07-06 09:59:00,74.0,71.8,30.09,East,88,3.0,5.0,93,0.00,,,0.03,Wunderground v.1.15,2013-07-06 13:59:00,
2013-07-06 10:05:00,74.7,72.5,30.09,SSE,160,4.0,6.0,93,0.00,,,0.03,Wunderground v.1.15,2013-07-06 14:05:00,
2013-07-06 10:10:00,75.3,72.5,30.08,SSE,150,4.0,4.0,91,0.00,,,0.03,Wunderground v.1.15,2013-07-06 14:10:00,
2013-07-06 10:17:00,75.3,71.8,30.08,ESE,108,3.0,4.0,89,0.00,,,0.03,Wunderground v.1.15,2013-07-06 14:17:00,
2013-07-06 10:23:00,75.2,72.1,30.08,SE,139,3.0,4.0,90,0.00,,,0.03,Wunderground v.1.15,2013-07-06 14:23:00,
2013-07-06 10:28:00,75.0,71.5,30.08,SSE,155,3.0,5.0,89,0.00,,,0.03,Wunderground v.1.15,2013-07-06 14:28:00,
2013-07-06 10:34:00,74.5,71.4,30.08,SSE,159,3.0,3.0,90,0.00,,,0.03,Wunderground v.1.15,2013-07-06 14:34:00,
2013-07-06 10:39:00,74.0,70.9,30.09,South,181,3.0,5.0,90,0.35,,,0.07,Wunderground v.1.15,2013-07-06 14:39:00,
2013-07-06 10:45:00,73.6,71.1,30.09,South,170,2.0,3.0,92,0.14,,,0.08,Wunderground v.1.15,2013-07-06 14:45:00,
2013-07-06 10:50:00,73.5,71.4,30.08,SSE,149,2.0,2.0,93,0.07,,,0.08,Wunderground v.1.15,2013-07-06 14:50:00,
2013-07-06 10:56:00,73.8,72.0,30.08,SSE,148,2.0,6.0,94,0.04,,,0.08,Wunderground v.1.15,2013-07-06 14:56:00,
2013-07-06 11:02:00,74.4,71.9,30.08,SSW,207,2.0,2.0,92,0.00,,,0.08,Wunderground v.1.15,2013-07-06 15:02:00,
2013-07-06 11:07:00,74.4,71.9,30.08,SSW,200,2.0,3.0,92,0.00,,,0.08,Wunderground v.1.15,2013-07-06 15:07:00,
2013-07-06 11:13:00,74.3,71.8,30.08,SSE,168,1.0,2.0,92,0.00,,,0.08,Wunderground v.1.15,2013-07-06 15:13:00,
2013-07-06 11:18:00,74.2,71.7,30.08,SSW,206,1.0,2.0,92,0.00,,,0.08,Wunderground v.1.15,2013-07-06 15:18:00,
2013-07-06 11:24:00,73.7,71.2,30.08,SSE,155,1.0,1.0,92,0.00,,,0.09,Wunderground v.1.15,2013-07-06 15:24:00,
2013-07-06 11:30:00,73.1,71.0,30.08,WSW,251,1.0,6.0,93,0.12,,,0.10,Wunderground v.1.15,2013-07-06 15:30:00,
2013-07-06 11:36:00,71.9,69.4,30.08,West,264,2.0,6.0,92,0.10,,,0.11,Wunderground v.1.15,2013-07-06 15:36:00,
2013-07-06 11:41:00,71.2,68.8,30.08,ESE,106,1.0,1.0,92,0.06,,,0.11,Wunderground v.1.15,2013-07-06 15:41:00,
2013-07-06 11:47:00,70.7,68.6,30.08,SSW,198,1.0,3.0,93,0.04,,,0.11,Wunderground v.1.15,2013-07-06 15:47:00,
2013-07-06 11:53:00,70.7,68.9,30.09,SE,142,1.0,2.0,94,0.00,,,0.11,Wunderground v.1.15,2013-07-06 15:53:00,
2013-07-06 11:58:00,70.9,69.1,30.09,SSW,211,2.0,4.0,94,0.00,,,0.11,Wunderground v.1.15,2013-07-06 15:58:00,
2013-07-06 12:04:00,70.8,68.7,30.08,ESE,113,2.0,5.0,93,0.00,,,0.11,Wunderground v.1.15,2013-07-06 16:04:00,
2013-07-06 12:09:00,70.7,68.9,30.08,SSE,164,2.0,5.0,94,0.00,,,0.11,Wunderground v.1.15,2013-07-06 16:09:00,
2013-07-06 12:15:00,70.3,68.5,30.08,SSW,200,2.0,5.0,94,0.00,,,0.12,Wunderground v.1.15,2013-07-06 16:15:00,
2013-07-06 12:21:00,70.0,68.5,30.08,South,173,3.0,5.0,95,0.21,,,0.14,Wunderground v.1.15,2013-07-06 16:21:00,
2013-07-06 12:27:00,69.7,68.2,30.07,SSE,150,2.0,5.0,95,0.19,,,0.16,Wunderground v.1.15,2013-07-06 16:27:00,
2013-07-06 12:33:00,70.0,68.8,30.08,SSE,165,2.0,5.0,96,0.07,,,0.16,Wunderground v.1.15,2013-07-06 16:33:00,
2013-07-06 12:40:00,70.2,69.0,30.08,South,191,3.0,3.0,96,0.04,,,0.16,Wunderground v.1.15,2013-07-06 16:40:00,
2013-07-06 12:45:00,70.4,68.9,30.08,SE,129,3.0,7.0,95,0.00,,,0.17,Wunderground v.1.15,2013-07-06 16:45:00,
2013-07-06 12:51:00,70.6,69.1,30.08,SSW,211,4.0,4.0,95,0.00,,,0.17,Wunderground v.1.15,2013-07-06 16:51:00,
2013-07-06 12:57:00,70.9,69.1,30.08,ESE,110,4.0,6.0,94,0.00,,,0.17,Wunderground v.1.15,2013-07-06 16:57:00,
2013-07-06 13:02:00,71.0,69.2,30.08,SW,215,3.0,3.0,94,0.00,,,0.17,Wunderground v.1.15,2013-07-06 17:02:00,
2013-07-06 13:07:00,71.1,69.3,30.08,SE,146,3.0,5.0,94,0.00,,,0.17,Wunderground v.1.15,2013-07-06 17:07:00,
2013-07-06 13:13:00,71.2,69.4,30.08,South,187,3.0,3.0,94,0.00,,,0.17,Wunderground v.1.15,2013-07-06 17:13:00,
2013-07-06 13:18:00,71.2,69.4,30.08,SSE,155,2.0,5.0,94,0.00,,,0.17,Wunderground v.1.15,2013-07-06 17:18:00,
2013-07-06 13:24:00,71.4,69.9,30.08,SSE,163,2.0,2.0,95,0.00,,,0.18,Wunderground v.1.15,2013-07-06 17:24:00,
2013-07-06 13:30:00,71.8,70.0,30.08,SE,145,2.0,5.0,94,0.09,,,0.19,Wunderground v.1.15,2013-07-06 17:30:00,
2013-07-06 13:36:00,72.1,70.6,30.09,WSW,253,2.0,5.0,95,0.05,,,0.19,Wunderground v.1.15,2013-07-06 17:36:00,
2013-07-06 13:42:00,72.4,70.6,30.08,SE,136,2.0,3.0,94,0.00,,,0.19,Wunderground v.1.15,2013-07-06 17:42:00,
2013-07-06 13:48:00,72.4,69.9,30.08,SSE,162,4.0,6.0,92,0.00,,,0.19,Wunderground v.1.15,2013-07-06 17:48:00,
2013-07-06 13:54:00,72.4,70.3,30.08,SSE,166,4.0,5.0,93,0.00,,,0.19,Wunderground v.1.15,2013-07-06 17:54:00,
2013-07-06 14:02:00,72.6,70.1,30.08,SW,233,2.0,6.0,92,0.00,,,0.19,Wunderground v.1.15,2013-07-06 18:02:00,
2013-07-06 14:07:00,72.7,70.6,30.08,SSE,167,2.0,6.0,93,0.00,,,0.19,Wunderground v.1.15,2013-07-06 18:07:00,
2013-07-06 14:13:00,73.0,70.9,30.09,SSW,206,3.0,4.0,93,0.00,,,0.19,Wunderground v.1.15,2013-07-06 18:13:00,
2013-07-06 14:18:00,73.3,71.2,30.08,SE,139,2.0,4.0,93,0.00,,,0.19,Wunderground v.1.15,2013-07-06 18:18:00,
2013-07-06 14:23:00,73.8,71.3,30.08,SW,228,1.0,3.0,92,0.00,,,0.19,Wunderground v.1.15,2013-07-06 18:23:00,
2013-07-06 14:35:00,73.9,71.4,30.08,SW,214,3.0,3.0,92,0.00,,,0.19,Wunderground v.1.15,2013-07-06 18:35:00,
2013-07-06 14:40:00,74.1,71.3,30.08,SE,141,2.0,4.0,91,0.00,,,0.19,Wunderground v.1.15,2013-07-06 18:40:00,
2013-07-06 14:46:00,74.1,70.6,30.08,SSW,195,3.0,6.0,89,0.00,,,0.19,Wunderground v.1.15,2013-07-06 18:46:00,
2013-07-06 14:52:00,74.2,71.1,30.08,South,176,2.0,2.0,90,0.00,,,0.19,Wunderground v.1.15,2013-07-06 18:52:00,
2013-07-06 14:58:00,74.0,70.9,30.08,WNW,282,1.0,4.0,90,0.00,,,0.19,Wunderground v.1.15,2013-07-06 18:58:00,
2013-07-06 15:03:00,74.1,71.3,30.07,West,271,1.0,4.0,91,0.00,,,0.19,Wunderground v.1.15,2013-07-06 19:03:00,
2013-07-06 15:09:00,74.0,71.2,30.07,SW,232,1.0,4.0,91,0.00,,,0.19,Wunderground v.1.15,2013-07-06 19:09:00,
2013-07-06 15:15:00,74.5,71.7,30.07,SSW,203,1.0,3.0,91,0.00,,,0.19,Wunderground v.1.15,2013-07-06 19:15:00,
2013-07-06 15:20:00,74.9,71.1,30.07,WSW,250,2.0,5.0,88,0.00,,,0.19,Wunderground v.1.15,2013-07-06 19:20:00,
2013-07-06 15:26:00,75.7,72.2,30.07,SW,224,2.0,2.0,89,0.00,,,0.19,Wunderground v.1.15,2013-07-06 19:26:00,
2013-07-06 15:32:00,76.1,72.3,30.07,SSW,201,1.0,1.0,88,0.00,,,0.19,Wunderground v.1.15,2013-07-06 19:32:00,
2013-07-06 15:38:00,76.0,71.2,30.07,WNW,285,1.0,4.0,85,0.00,,,0.19,Wunderground v.1.15,2013-07-06 19:38:00,
2013-07-06 15:44:00,76.0,71.5,30.07,West,274,1.0,1.0,86,0.00,,,0.19,Wunderground v.1.15,2013-07-06 19:44:00,
2013-07-06 15:50:00,76.1,71.9,30.07,SW,231,1.0,2.0,87,0.00,,,0.19,Wunderground v.1.15,2013-07-06 19:50:00,
2013-07-06 15:56:00,76.2,71.7,30.08,WSW,238,1.0,2.0,86,0.00,,,0.19,Wunderground v.1.15,2013-07-06 19:56:00,
2013-07-06 16:01:00,76.0,71.2,30.07,SW,236,1.0,1.0,85,0.00,,,0.19,Wunderground v.1.15,2013-07-06 20:01:00,
2013-07-06 16:07:00,75.7,70.9,30.08,SSW,205,1.0,2.0,85,0.00,,,0.19,Wunderground v.1.15,2013-07-06 20:07:00,
2013-07-06 16:12:00,75.5,71.0,30.08,WSW,240,1.0,1.0,86,0.00,,,0.19,Wunderground v.1.15,2013-07-06 20:12:00,
2013-07-06 16:18:00,75.4,70.6,30.08,WSW,255,1.0,2.0,85,0.00,,,0.19,Wunderground v.1.15,2013-07-06 20:18:00,
2013-07-06 16:24:00,75.3,70.1,30.08,SSW,204,2.0,4.0,84,0.00,,,0.19,Wunderground v.1.15,2013-07-06 20:24:00,
2013-07-06 16:31:00,75.5,71.0,30.07,South,188,2.0,2.0,86,0.00,,,0.19,Wunderground v.1.15,2013-07-06 20:31:00,
2013-07-06 16:36:00,75.7,71.2,30.07,SW,232,1.0,2.0,86,0.00,,,0.19,Wunderground v.1.15,2013-07-06 20:36:00,
2013-07-06 16:42:00,75.7,70.9,30.07,SSW,210,1.0,2.0,85,0.00,,,0.19,Wunderground v.1.15,2013-07-06 20:42:00,
2013-07-06 16:48:00,75.3,70.1,30.07,SW,236,1.0,3.0,84,0.00,,,0.19,Wunderground v.1.15,2013-07-06 20:48:00,
2013-07-06 16:54:00,75.0,70.2,30.08,WSW,238,1.0,2.0,85,0.00,,,0.19,Wunderground v.1.15,2013-07-06 20:54:00,
2013-07-06 16:59:00,74.9,70.8,30.08,West,269,1.0,2.0,87,0.00,,,0.19,Wunderground v.1.15,2013-07-06 20:59:00,
2013-07-06 17:05:00,74.7,70.9,30.07,WSW,252,1.0,3.0,88,0.00,,,0.19,Wunderground v.1.15,2013-07-06 21:05:00,
2013-07-06 17:11:00,74.5,70.7,30.08,South,169,1.0,1.0,88,0.00,,,0.19,Wunderground v.1.15,2013-07-06 21:11:00,
2013-07-06 17:16:00,74.3,70.5,30.08,WSW,248,1.0,3.0,88,0.00,,,0.19,Wunderground v.1.15,2013-07-06 21:16:00,
2013-07-06 17:22:00,74.2,70.7,30.07,West,259,1.0,2.0,89,0.00,,,0.19,Wunderground v.1.15,2013-07-06 21:22:00,
2013-07-06 17:28:00,74.2,71.1,30.07,WSW,252,0.0,2.0,90,0.00,,,0.19,Wunderground v.1.15,2013-07-06 21:28:00,
2013-07-06 17:34:00,74.3,71.2,30.07,SW,233,0.0,2.0,90,0.00,,,0.19,Wunderground v.1.15,2013-07-06 21:34:00,
2013-07-06 17:39:00,74.2,71.1,30.07,WSW,246,1.0,2.0,90,0.00,,,0.19,Wunderground v.1.15,2013-07-06 21:39:00,
2013-07-06 17:45:00,74.2,71.1,30.07,WSW,242,1.0,2.0,90,0.00,,,0.19,Wunderground v.1.15,2013-07-06 21:45:00,
2013-07-06 17:50:00,74.2,71.4,30.07,SW,233,1.0,1.0,91,0.00,,,0.19,Wunderground v.1.15,2013-07-06 21:50:00,
2013-07-06 17:57:00,74.1,71.0,30.06,West,279,0.0,3.0,90,0.00,,,0.20,Wunderground v.1.15,2013-07-06 21:57:00,
2013-07-06 18:03:00,73.5,70.1,30.07,WSW,240,1.0,6.0,89,0.00,,,0.20,Wunderground v.1.15,2013-07-06 22:03:00,
2013-07-06 18:09:00,72.3,69.2,30.07,WNW,289,3.0,6.0,90,0.00,,,0.20,Wunderground v.1.15,2013-07-06 22:09:00,
2013-07-06 18:14:00,71.9,69.4,30.06,West,277,2.0,3.0,92,0.00,,,0.20,Wunderground v.1.15,2013-07-06 22:14:00,
2013-07-06 18:20:00,71.5,69.1,30.06,WNW,290,1.0,2.0,92,0.00,,,0.20,Wunderground v.1.15,2013-07-06 22:20:00,
2013-07-06 18:25:00,71.1,68.7,30.07,SW,231,2.0,5.0,92,0.00,,,0.20,Wunderground v.1.15,2013-07-06 22:25:00,
2013-07-06 18:32:00,70.7,68.3,30.07,SW,217,2.0,4.0,92,0.00,,,0.20,Wunderground v.1.15,2013-07-06 22:32:00,
2013-07-06 18:39:00,70.3,68.2,30.07,WSW,252,2.0,5.0,93,0.00,,,0.20,Wunderground v.1.15,2013-07-06 22:39:00,
2013-07-06 18:45:00,70.0,68.2,30.08,WNW,290,3.0,3.0,94,0.00,,,0.21,Wunderground v.1.15,2013-07-06 22:45:00,
2013-07-06 18:51:00,69.8,68.0,30.08,SW,235,2.0,3.0,94,0.00,,,0.21,Wunderground v.1.15,2013-07-06 22:51:00,
2013-07-06 18:57:00,69.6,68.1,30.08,WNW,283,1.0,3.0,95,0.04,,,0.22,Wunderground v.1.15,2013-07-06 22:57:00,
2013-07-06 19:03:00,69.4,67.9,30.08,West,259,1.0,2.0,95,0.04,,,0.22,Wunderground v.1.15,2013-07-06 23:03:00,
2013-07-06 19:09:00,69.2,67.4,30.09,WSW,238,1.0,2.0,94,0.04,,,0.22,Wunderground v.1.15,2013-07-06 23:09:00,
2013-07-06 19:14:00,69.1,67.6,30.09,West,270,1.0,2.0,95,0.00,,,0.22,Wunderground v.1.15,2013-07-06 23:14:00,
2013-07-06 19:20:00,69.0,67.5,30.09,WSW,240,1.0,1.0,95,0.00,,,0.22,Wunderground v.1.15,2013-07-06 23:20:00,
2013-07-06 19:26:00,68.8,67.3,30.10,SW,229,0.0,1.0,95,0.00,,,0.23,Wunderground v.1.15,2013-07-06 23:26:00,
2013-07-06 19:31:00,68.7,67.2,30.10,SW,236,0.0,0.0,95,0.00,,,0.23,Wunderground v.1.15,2013-07-06 23:31:00,
2013-07-06 19:37:00,68.5,67.0,30.09,WSW,256,0.0,1.0,95,0.00,,,0.23,Wunderground v.1.15,2013-07-06 23:37:00,
2013-07-06 19:44:00,68.4,66.9,30.09,SW,221,0.0,0.0,95,0.00,,,0.24,Wunderground v.1.15,2013-07-06 23:44:00,
2013-07-06 19:49:00,68.4,66.9,30.08,SW,221,0.0,0.0,95,0.00,,,0.24,Wunderground v.1.15,2013-07-06 23:49:00,
2013-07-06 19:55:00,68.4,66.9,30.08,SW,221,0.0,0.0,95,0.00,,,0.24,Wunderground v.1.15,2013-07-06 23:55:00,
2013-07-06 20:00:00,68.4,67.2,30.09,SE,143,0.0,0.0,96,0.00,,,0.24,Wunderground v.1.15,2013-07-07 00:00:00,
2013-07-06 20:07:00,68.2,66.7,30.09,SSW,201,0.0,0.0,95,0.00,,,0.24,Wunderground v.1.15,2013-07-07 00:07:00,
2013-07-06 20:12:00,68.2,66.7,30.10,SE,146,0.0,1.0,95,0.00,,,0.24,Wunderground v.1.15,2013-07-07 00:12:00,
2013-07-06 20:19:00,68.1,66.9,30.09,SSE,148,0.0,1.0,96,0.00,,,0.25,Wunderground v.1.15,2013-07-07 00:19:00,
2013-07-06 20:25:00,68.1,66.9,30.10,ESE,107,0.0,0.0,96,0.00,,,0.25,Wunderground v.1.15,2013-07-07 00:25:00,
2013-07-06 20:30:00,68.1,66.9,30.10,SE,146,0.0,0.0,96,0.00,,,0.25,Wunderground v.1.15,2013-07-07 00:30:00,
2013-07-06 20:36:00,68.0,66.8,30.10,SSW,195,0.0,1.0,96,0.00,,,0.25,Wunderground v.1.15,2013-07-07 00:36:00,
2013-07-06 20:43:00,68.0,66.8,30.09,SE,140,0.0,0.0,96,0.00,,,0.25,Wunderground v.1.15,2013-07-07 00:43:00,
2013-07-06 20:52:00,67.9,67.0,30.10,SSW,205,0.0,0.0,97,0.00,,,0.26,Wunderground v.1.15,2013-07-07 00:52:00,
2013-07-06 20:58:00,67.9,67.0,30.10,South,185,0.0,1.0,97,0.00,,,0.26,Wunderground v.1.15,2013-07-07 00:58:00,
2013-07-06 21:03:00,67.9,67.0,30.10,SSE,153,0.0,0.0,97,0.00,,,0.26,Wunderground v.1.15,2013-07-07 01:03:00,
2013-07-06 21:08:00,67.9,67.0,30.10,SSE,152,0.0,0.0,97,0.00,,,0.26,Wunderground v.1.15,2013-07-07 01:08:00,
2013-07-06 21:13:00,67.9,67.0,30.10,SSE,160,0.0,0.0,97,0.00,,,0.26,Wunderground v.1.15,2013-07-07 01:13:00,
2013-07-06 21:19:00,67.8,66.9,30.10,South,191,0.0,0.0,97,0.00,,,0.26,Wunderground v.1.15,2013-07-07 01:19:00,
2013-07-06 21:24:00,67.8,66.9,30.10,SSE,163,0.0,1.0,97,0.00,,,0.26,Wunderground v.1.15,2013-07-07 01:24:00,
2013-07-06 21:30:00,67.8,66.9,30.11,SSW,200,0.0,0.0,97,0.00,,,0.26,Wunderground v.1.15,2013-07-07 01:30:00,
2013-07-06 21:35:00,67.8,66.9,30.11,SSW,200,0.0,0.0,97,0.00,,,0.26,Wunderground v.1.15,2013-07-07 01:35:00,
2013-07-06 21:41:00,67.8,66.9,30.11,SSE,161,0.0,0.0,97,0.00,,,0.26,Wunderground v.1.15,2013-07-07 01:41:00,
2013-07-06 21:46:00,67.8,67.2,30.11,SW,218,0.0,0.0,98,0.00,,,0.26,Wunderground v.1.15,2013-07-07 01:46:00,
2013-07-06 21:52:00,67.8,67.2,30.11,SE,138,0.0,0.0,98,0.00,,,0.27,Wunderground v.1.15,2013-07-07 01:52:00,
2013-07-06 21:57:00,67.8,67.2,30.11,SE,138,0.0,0.0,98,0.00,,,0.27,Wunderground v.1.15,2013-07-07 01:57:00,
2013-07-06 22:02:00,67.8,67.2,30.12,SE,145,0.0,0.0,98,0.00,,,0.27,Wunderground v.1.15,2013-07-07 02:02:00,
2013-07-06 22:07:00,67.9,67.3,30.13,SSW,211,0.0,0.0,98,0.00,,,0.27,Wunderground v.1.15,2013-07-07 02:07:00,
2013-07-06 22:14:00,67.9,67.3,30.14,SE,143,0.0,0.0,98,0.00,,,0.27,Wunderground v.1.15,2013-07-07 02:14:00,
2013-07-06 22:20:00,67.9,67.3,30.14,South,184,0.0,1.0,98,0.00,,,0.27,Wunderground v.1.15,2013-07-07 02:20:00,
2013-07-06 22:25:00,68.0,67.4,30.14,SSW,208,0.0,1.0,98,0.00,,,0.28,Wunderground v.1.15,2013-07-07 02:25:00,
2013-07-06 22:31:00,68.0,67.4,30.14,SSE,159,0.0,1.0,98,0.00,,,0.28,Wunderground v.1.15,2013-07-07 02:31:00,
2013-07-06 22:37:00,68.0,67.4,30.14,SSW,193,0.0,1.0,98,0.05,,,0.29,Wunderground v.1.15,2013-07-07 02:37:00,
2013-07-06 22:42:00,68.1,67.5,30.14,South,188,0.0,0.0,98,0.05,,,0.29,Wunderground v.1.15,2013-07-07 02:42:00,
2013-07-06 22:47:00,68.1,67.5,30.14,SSE,155,0.0,0.0,98,0.06,,,0.30,Wunderground v.1.15,2013-07-07 02:47:00,
2013-07-06 22:53:00,68.1,67.5,30.13,SE,142,0.0,1.0,98,0.06,,,0.30,Wunderground v.1.15,2013-07-07 02:53:00,
2013-07-06 22:58:00,68.1,67.5,30.13,SSW,201,1.0,3.0,98,0.05,,,0.30,Wunderground v.1.15,2013-07-07 02:58:00,
2013-07-06 23:03:00,68.0,67.4,30.13,SW,219,1.0,1.0,98,0.04,,,0.30,Wunderground v.1.15,2013-07-07 03:03:00,
2013-07-06 23:09:00,68.0,67.4,30.13,South,190,1.0,2.0,98,0.04,,,0.31,Wunderground v.1.15,2013-07-07 03:09:00,
2013-07-06 23:14:00,67.9,67.3,30.13,SW,215,1.0,3.0,98,0.04,,,0.31,Wunderground v.1.15,2013-07-07 03:14:00,
2013-07-06 23:21:00,67.7,67.1,30.12,ESE,104,1.0,1.0,98,0.00,,,0.31,Wunderground v.1.15,2013-07-07 03:21:00,
2013-07-06 23:26:00,67.6,67.0,30.12,South,187,1.0,2.0,98,0.00,,,0.32,Wunderground v.1.15,2013-07-07 03:26:00,
2013-07-06 23:32:00,67.6,67.0,30.12,SW,221,1.0,1.0,98,0.00,,,0.32,Wunderground v.1.15,2013-07-07 03:32:00,
2013-07-06 23:38:00,67.6,67.0,30.11,SSE,166,0.0,1.0,98,0.00,,,0.32,Wunderground v.1.15,2013-07-07 03:38:00,
2013-07-06 23:43:00,67.6,67.0,30.11,SSE,150,0.0,0.0,98,0.00,,,0.32,Wunderground v.1.15,2013-07-07 03:43:00,
2013-07-06 23:51:00,67.5,66.9,30.11,SSW,211,0.0,1.0,98,0.00,,,0.32,Wunderground v.1.15,2013-07-07 03:51:00,
2013-07-06 23:58:00,67.5,66.9,30.11,ESE,115,0.0,1.0,98,0.00,,,0.33,Wunderground v.1.15,2013-07-07 03:58:00,